Location: Goettingen
(51.5300°N, 9.9433°E)
Time: 11:10:42
(UTC+01:00)

ISS - Pass Details

Date: 22 March 2023
Orbit: 414 x 423 km, 51.6° (Epoch: 20 March)

Event Time Altitude Azimuth Distance (km) Brightness Sun altitude
Rises 20:15:09 0° 264° (W) 2,357 1.2 -15.8°
Reaches altitude 10° 20:17:15 10° 265° (W) 1,493 0.0 -16.1°
Maximum altitude 20:20:36 88° 351° (N) 421 -3.9 -16.6°
Enters shadow 20:21:36 43° 84° (E) 597 -3.4 -16.7°
